Regional Weather Roundup
Issued by NWS Pendleton, OR

Home | Current Version | Previous Version | Text Only | Print | Product List | Glossary On
Versions: 1 2 3 4 5 6 7 8 9 10 11 12 13 14 15 16 17 18 19 20 21 22 23 24 25 26 27 28 29 30 31 32 33 34 35 36 37 38 39 40 41 42 43 44 45 46 47 48 49 50
000
ASUS46 KPDT 170625
RWRPDT
PENDLETON REGIONAL WEATHER ROUNDUP
NATIONAL WEATHER SERVICE PENDLETON OREGON
1100 PM PDT TUE SEP 16 2014

NOTE: FAIR INDICATES FEW OR NO CLOUDS BELOW 12,000 FEET WITH NO
SIGNIFICANT WEATHER AND/OR OBSTRUCTIONS TO VISIBILITY.

# INDICATES UNOFFICIAL STATION AND DATA

WAZ520-170710-
EAST SLOPES OF WASHINGTON CASCADES

CITY            SKY/WX      TMP DP  RH  WIND    PRES   REMARKS
#BUMPING DAM    N/A         58  N/A N/A NE1     N/A
#CLE ELUM HS    N/A         56  47  72  CALM    29.81S
#CLE ELUM 2NW   N/A         55  46  72  NW1     N/A
#CLE ELUM LAKE  N/A         62  49  62  CALM    29.71F
#CLIFFDEL 2NW   N/A         59  49  69  N2      N/A
#GLENWOOD       N/A         58  49  72  CALM    29.80R
#MANASTASH CYN  N/A         57  41  55  CALM    29.85S
#NELSON         N/A         58  51  77  CALM    29.79S
#NELSON 3SW     N/A         56  46  69  CALM    29.95S
#NILE           N/A         60  51  72  CALM    29.06S
#RONALD 2NW     N/A         61  48  62  CALM    29.76S
#TEANAWAY 4NE   N/A         59  51  75  CALM    N/A
#TROUT LAKE 1NE N/A         57  48  72  CALM    29.81R
$$

WAZ521-170710-
SIMCOE HIGHLANDS

CITY            SKY/WX      TMP DP  RH  WIND    PRES   REMARKS
#BICKLETON HS   N/A         63  28  26  CALM    29.94S
#CENTERVILLE 4W N/A         69  46  44  NW13    29.64S
#CENTERVILLE 1SWN/A         68  45  44  W7      29.74S
#GOLDENDALE     N/A         66  45  47  S2      N/A
#GOLDENDALE 1NE N/A         65  40  40  CALM    N/A
#GOLDENDALE 1S  N/A         64  47  54  CALM    29.83R
#GOODNOE HILLS  N/A         71  47  42  W12     29.75S
#LYLE 6NE       N/A         66  51  58  CALM    29.77R
$$

WAZ026-170710-
KITTITAS VALLEY

CITY            SKY/WX      TMP DP  RH  WIND    PRES   REMARKS
ELLENSBURG AP   PTCLDY      67  48  50  N10     29.81S
6HR MIN TEMP:   63; 6HR MAX TEMP:   88;

#ELLENSBURG CWU N/A         62  49  62  W2      29.70F
#ELLENSBURG 3NE N/A         60  48  64  NE7     29.81S
#ELLENSBURG     N/A         63  53  70  NE2     N/A
#KITTITAS 3S    N/A         55  49  80  CALM    29.74S
#THORP 6N       N/A         61  49  65  N7      29.75F
$$

WAZ027-170710-
YAKIMA VALLEY

CITY            SKY/WX      TMP DP  RH  WIND    PRES   REMARKS
SUNNYSIDE AP    N/A         54  48  80  CALM    29.77S
YAKIMA AIRPORT  MOCLDY      62  47  58  W7      29.78S
6HR MIN TEMP:   60; 6HR MAX TEMP:   87;

YAKIMA-VAGABOND MOCLDY      72  45  38  VRB3    29.80R
#COWICHE 1N     N/A         70  51  51  NW2     29.98R
#DONALD 2NE     N/A         71  37  29  CALM    30.11R
#GRANDVIEW      N/A         63  45  52  CALM    29.75S
#MABTON         N/A         61  49  65  CALM    29.76R
#MOXEE 2E       N/A         66  34  30  E3      29.75R
#NACHES 2SW     N/A         69  53  57  W8      29.81S
#OUTLOOK DOT    N/A         N/A N/A N/A CALM    N/A
#SELAH 8E       N/A         63  38  39  SE7     N/A
#TERRACE HTS    N/A         64  47  54  CALM    29.71R
#TOPPENISH      N/A         64  50  60  CALM    29.66R
#WAPATO 4NE     N/A         71  37  29  CALM    30.11R
#WEST VALLEY    N/A         65  49  56  CALM    29.72R
#W YAKIMA       N/A         71  51  49  W1      29.73S
#WHITE SWAN 5E  N/A         58  49  72  S2      29.75R
#WILEY CITY 3W  N/A         62  47  58  CALM    29.78R
$$

WAZ028-170710-
LOWER COLUMBIA BASIN...WASHINGTON

CITY            SKY/WX      TMP DP  RH  WIND    PRES   REMARKS
PASCO           PTCLDY      62  52  70  E3      29.76R
6HR MIN TEMP:   60; 6HR MAX TEMP:   85;

PROSSER AWOS    N/A         59  48  67  N2      29.79R
RICHLAND AWOS   PTCLDY      63  48  58  CALM    29.75R
#BASIN CITY 5SW N/A         61  49  65  NE1     29.76R
#BENTON CITY    N/A         67  45  45  W3      29.65R
#CONNELL 5N     N/A         60  40  47  CALM    29.74R
#CONNELL 5NW    N/A         59  39  47  CALM    29.71R
#ELTOPIA        N/A         63  44  50  CALM    29.71R
#ELTOPIA 6NW    N/A         69  48  47  S1      28.74R
#KENNEWICK 3S   N/A         73  42  33  S1      29.73R
#PASCO-BROADMOORN/A         65  48  54  CALM    29.62S
#PATERSON       N/A         66  50  56  NE1     29.73R
#PROSSER        N/A         72  37  28  W3      29.72S
#SAGEMOOR 2W    N/A         70  50  49  CALM    29.59S
#TOUCHET 2S     N/A         56  46  69  CALM    29.72S
#WEST PASCO     N/A         65  48  54  CALM    29.72R
$$

WAZ029-170710-
FOOTHILLS OF THE BLUES...WASHINGTON

CITY            SKY/WX      TMP DP  RH  WIND    PRES   REMARKS
WALLA WALLA AP  PTCLDY      69  36  30  E8      29.79S
6HR MIN TEMP:   67; 6HR MAX TEMP:   87;

#DAYTON SCHOOL  N/A         61  32  33  CALM    29.81S
#LOWDEN 2SE     N/A         60  46  60  E1      29.72S
#PLEASANT VIEW 1N/A         69  36  30  SW6     29.76S
#PRESCOTT       N/A         56  41  57  CALM    29.74S
#SUDBURY        N/A         60  N/A N/A CALM    N/A
#WHITMAN COLLEGEN/A         72  39  30  CALM    29.78S
#WAITSBURG 8N   N/A         57  22  25  CALM    29.74S
#WALLA WALLA 5E N/A         68  36  31  W7      N/A
#WALLA WALLA U  N/A         65  45  48  CALM    29.73S
#WHITMAN MISSIONN/A         59  47  64  CALM    29.75S
$$

WAZ030-170710-
BLUE MOUNTAINS...WASHINGTON

CITY            SKY/WX      TMP DP  RH  WIND    PRES   REMARKS
$$

ORZ009-041-WAZ024-170710-
COLUMBIA RIVER GORGE

CITY            SKY/WX      TMP DP  RH  WIND    PRES   REMARKS
HOOD RIVER AP   CLOUDY      70  50  49  NW7     29.83S
THE DALLES AP   CLOUDY      73  48  41  W13     29.79R
6HR MIN TEMP:   73; 6HR MAX TEMP:   83;

#ARLINGTON AIRPON/A         72  47  41  SW8     N/A
#ARLINGTON HS   N/A         74  46  37  W2      29.66R
#MARYHILL 2W    N/A         76  50  40  S1      N/A
#MOSIER 1S      N/A         66  44  45  CALM    29.85R
#MURDOCK        N/A         74  53  48  W12     29.80R
#RUFUS DOT      N/A         N/A N/A N/A NE8     N/A

$$

ORZ510-170710-
NORTH CENTRAL OREGON

CITY            SKY/WX      TMP DP  RH  WIND    PRES   REMARKS
#COW CYN RST AREN/A         67  39  36  N6      N/A
#DUFUR 9E       N/A         64  47  54  CALM    29.82R
#GRASS VALLEY   N/A         62  44  52  CALM    N/A
#GRASS VALLEY 1SN/A         65  45  48  CALM    29.79S
#KENT DOT       N/A         62  39  43  S3      N/A
#MAUPIN SCHOOL  N/A         70  46  42  CALM    28.70S
#MORO SCHOOL    N/A         68  53  59  NW9     29.87R
#SHANIKO 5WSW   N/A         64  35  34  NW7     N/A
#SHANIKO 4NW    N/A         65  36  34  NW10    29.93S
#TYGH VALLEY 2NEN/A         66  47  50  CALM    29.77S
#WAPANITIA AIRPON/A         70  43  38  W1      29.78S
#WASCO DOT      N/A         68  49  51  SW3     N/A
#WASCO AIRPORT  N/A         68  45  44  W13     N/A
#WASCO 5NE      N/A         67  48  50  W5      29.77R
$$

ORZ511-170710-
CENTRAL OREGON

CITY            SKY/WX      TMP DP  RH  WIND    PRES   REMARKS
BEND AIRPORT    MOCLDY      63  39  41  CALM    29.94R
MADRAS AIRPORT  CLOUDY      63  41  44  N6      29.89S
REDMOND AIRPORT MOCLDY      64  39  40  W7      29.90R HAZE
6HR MIN TEMP:   58; 6HR MAX TEMP:   87;

#BEND 6E        N/A         62  37  39  CALM    29.67S
#BEND 1SW       N/A         59  37  44  CALM    N/A
#BEND-AWBREY    N/A         65  42  43  CALM    29.75S
#BEND-KIM LN    N/A         61  43  51  CALM    29.90S
#CROOKED RVR RANN/A         68  44  42  NW13    29.75S
#CULVER         N/A         62  45  54  CALM    29.85R
#LAKE BILLY CHINN/A         68   2   7  CALM    29.92S
#POWELL BUTTE 3EN/A         66  40  38  SW3     N/A
#POWELL BUTTE   N/A         63  37  38  S1      29.57S
#PRINEVILLE 3N  N/A         61  43  51  CALM    29.72R
#WARM SPRINGS   N/A         71  45  39  S1      29.81S


ORZ509-170710-
EAST SLOPES OF OREGON CASCADES

CITY            SKY/WX      TMP DP  RH  WIND    PRES   REMARKS
#BLUE BOX PASS  N/A         60   6  11  N6      N/A
#BLACK BUTTE RNCN/A         60  45  58  CALM    29.80R
#CAMP SHERMAN   N/A         58  42  55  CALM    29.76F
#LA PINE DOT    N/A         57  39  51  CALM    N/A
#LA PINE 4NW    N/A         56  41  57  CALM    29.83R
#LAVA BUTTE DOT N/A         56  37  49  W7      N/A
#SISTERS AIRPOR N/A         60  47  62  CALM    29.91S
#SISTERS ODOT   N/A         56  N/A N/A CALM    N/A
#SISTERS 1NW    N/A         59  38  45  N7      N/A
#SISTERS 3N     N/A         57  37  47  CALM    N/A
#SUNRIVER       N/A         56  41  57  CALM    29.69F
#SUNRIVER AP    N/A         57  41  55  CALM    29.76S
#SUTTLE LK DOT  N/A         56  44  64  CALM    N/A
#TUMALO 3W      N/A         64  40  41  SW5     29.65R
#WANOGA BUTTE D N/A         58  35  42  CALM    N/A

$$

ORZ044-170710-
LOWER COLUMBIA BASIN...OREGON

CITY            SKY/WX      TMP DP  RH  WIND    PRES   REMARKS
HERMISTON       MOCLDY      69  44  40  S8      29.77R
6HR MIN TEMP:   64; 6HR MAX TEMP:   87;

#BOARDMAN SCHOOLN/A         83  40  22  CALM    29.75R
#BOARDMAN 3W    N/A         67  48  50  W2      29.47R
#BOARDMAN 8SW   N/A         70  50  49  S6      29.74S
#ECHO 8SW       N/A         71  44  38  S6      29.76R
#IONE SCHOOL    N/A         75  43  32  S6      29.80S
#IRRIGON 4NW    N/A         64  54  70  E3      N/A
#UMATILLA       N/A         65  46  50  CALM    29.75R
$$

ORZ507-170710-
NORTHERN FOOTHILLS OF THE BLUES

CITY            SKY/WX      TMP DP  RH  WIND    PRES   REMARKS
PENDLETON AIRPT MOCLDY      66  36  33  S3      29.81R
6HR MIN TEMP:   63; 6HR MAX TEMP:   85;

#ADAMS 3WNW     N/A         55  32  41  CALM    29.76R
#ATHENA         N/A         59  38  45  CALM    29.78S
#HELIX SCHOOL   N/A         57  34  42  CALM    29.76R
#HELIX 3N       N/A         69  35  28  S9      29.80S
#HOLDMAN 5SE    N/A         64  36  35  SE2     29.83R
#HOLDMAN 6E     N/A         63  36  36  CALM    29.59R
#M-FREEWATER 5SEN/A         67  41  39  E5      29.80S
#PENDLETON DNTN N/A         63  35  35  CALM    29.82S
#PDT AQUATIC CTRN/A         63  35  35  N2      29.82S
#PDT SUNRIDGE   N/A         61  39  44  E1      29.82R
#PENDLETON 7NW  N/A         63  40  43  CALM    32.31S
#PILOT ROCK     N/A         67  34  29  S2      29.85S
#TUTUILLA       N/A         56  40  55  S2      29.78S
#UMAPINE 2E     N/A         65  44  46  CALM    29.73S
#WESTON SCHOOL  N/A         71  32  24  W1      29.79S

$$

ORZ508-170710-
SOUTHERN FOOTHILLS OF THE BLUES

CITY            SKY/WX      TMP DP  RH  WIND    PRES   REMARKS
#AJAX           N/A         69  38  32  W2      29.82S
#CONDON SCHOOL  N/A         63  39  41  CALM    29.87S
#CONDON 5W      N/A         65  36  34  NW5     29.88S
#FOSSIL SCHOOL  N/A         60  40  47  CALM    29.88S
#HEPPNER EOC    N/A         64  40  41  SE7     29.74R
#HEPPNER 4NE    N/A         65  41  41  CALM    29.76S
#LEXINGTON 2SE  N/A         65  43  45  SE7     29.80S
#MIKKALO        N/A         67  38  34  W1      29.85S
#OLEX 4N        N/A         68  44  42  SW6     29.80R
#RUGGS 5NE      N/A         62  35  36  NE1     30.07S
#RUGGS 2SW      N/A         68  41  37  W6      29.81S

$$

ORZ502-503-170710-
BLUE MOUNTAINS

CITY            SKY/WX      TMP DP  RH  WIND    PRES   REMARKS
MEACHAM         PTCLDY      49  34  56  CALM    29.94F
6HR MIN TEMP:   49; 6HR MAX TEMP:   78;

#BATTLE MTN DOT N/A         59  42  53  N5      N/A
#HARDMAN 10S    N/A         60  39  46  CALM    30.02S
#HEPPNER 15SE   N/A         54  39  57  CALM    29.87S
#LADD CYN SMT   N/A         59  31  34  N5      N/A
#LADD CREEK ODOTN/A         64  39  40  S2      N/A
#N POWDER DOT   N/A         57  44  62  CALM    N/A
#PIKES PEAK     N/A         72  34  25  S10     27.99S
#TOLLGATE       N/A         58  33  39  CALM    29.93S
#TOLLGATE 9W    N/A         61  35  38  E1      N/A
#TROY SCHOOL    N/A         62  45  54  CALM    29.61R
#UKIAH          N/A         53  35  50  CALM    29.84R
#WESTON 4E      N/A         67  36  32  SE2     29.68S
$$

ORZ505-170710-
JOHN DAY BASIN

CITY            SKY/WX      TMP DP  RH  WIND    PRES   REMARKS
JOHN DAY        CLOUDY      68  33  27  SW5     29.92S
#MT. VERNON 5SE N/A         67  35  30  CALM    29.89S
#WINLOCK        N/A         63  34  34  CALM    29.99S
$$

ORZ506-170710-
OCHOCO AND JOHN DAY HIGHLANDS

CITY            SKY/WX      TMP DP  RH  WIND    PRES   REMARKS
#BUCK CREEK DOT N/A         66  38  36  CALM    N/A
#HORSE RIDGE DO N/A         58  33  39  SE2     N/A
#KEYES SMT DOT  N/A         62  35  36  SW9     N/A
#PAULINA SCHOOL N/A         62  31  31  CALM    29.92S
#PINE MTN OBS   N/A         58  37  45  CALM    N/A
#PRAIRIE CITY   N/A         56  38  51  CALM    29.87R
#SENECA 9NW     N/A         54  31  41  CALM    29.75S
$$

ORZ049-170710-
GRANDE RONDE VALLEY

CITY            SKY/WX      TMP DP  RH  WIND    PRES   REMARKS
LA GRANDE       PTCLDY      64  30  28  N8      29.86S
#COVE           N/A         60  41  49  S2      29.80S
#COVE SCHOOL    N/A         62  40  44  CALM    29.87R
#COVE 6NW       N/A         62  36  38  CALM    29.80R
#ELGIN 3N       N/A         57  31  37  CALM    29.62R
#ELGIN 1E       N/A         61  35  38  CALM    N/A
#IMBLER SCHOOL  N/A         59  36  42  N1      29.84R
#LADD CYN DOT   N/A         68  37  32  CALM    N/A
#LA GRANDE ELEM N/A         73  35  25  W15     29.86S
#UNION 1S       N/A         64  39  40  CALM    29.66R
$$

ORZ050-170710-
WALLOWA COUNTY

CITY            SKY/WX      TMP DP  RH  WIND    PRES   REMARKS
JOSEPH AIRPORT  PTCLDY      57  39  51  S3      29.95S
#ENTERPRISE AP  N/A         61  31  32  N1      29.88S
#ENTERPRISE HS  N/A         57  42  57  CALM    29.93S
#IMNAHA SCHOOL  N/A         68  38  33  CALM    29.79R
#IMNAHA 10S     N/A         68  40  36  SW2     29.88R
#JOSEPH 3N      N/A         50  39  66  NE1     29.96S
#JOSEPH 3W      N/A         61  38  42  SW2     29.83F
#LOSTINE        N/A         58  42  55  CALM    29.57S
#MT HOWARD 8000 N/A         59  39  47  SE3     30.19F
#PROMISE 1S     N/A         61  38  42  SW1     29.82F
#SHEEP RDG 7000 N/A         61  35  38  CALM    29.70R
#WALLOWA SCHOOL N/A         55  44  66  CALM    30.66R



$$



USA.gov is the U.S. government's official web portal to all federal, state and local government web resources and services.